Laurinburg-Maxton, NC

4:11 AM EDT on August 19, 2017 (GMT -0400)
Laurinburg-Maxton

Weather History for KMEB - February, 2013

Change the Weather History Date:

Thursday, February 7, 2013

  Actual Average (KHFF) Record (KHFF)
Temperature  
Mean Temperature 46 °F -  
Max Temperature 52 °F 55 °F 74 °F (2017)
Min Temperature 39 °F 32 °F 25 °F (2009)
Degree Days  
Heating Degree Days 20    
Moisture  
Dew Point 41 °F    
Average Humidity 84    
Maximum Humidity 100    
Minimum Humidity 53    
Precipitation  
Precipitation 0.50 in - - ()
Sea Level Pressure  
Sea Level Pressure 30.12 in    
Wind  
Wind Speed 11 mph (ENE)    
Max Wind Speed 21 mph    
Max Gust Speed 32 mph    
Visibility 7 miles    
Events Rain    
Averages and records for this station are not official NWS values.
T = Trace of Precipitation, MM = Missing Value Source: NWS Daily Summary

Daily Weather History Graph

Daily Weather History Graph

Search for Another Location

Airport or City:

Trip Planner

Search our weather history database for the weather conditions in past years. The results will help you decide how hot, cold, wet, or windy it might be!

Date:

Astronomy

Feb. 07, 2013 Rise Set
Actual Time 7:10 AM EST 5:52 PM EST
Civil Twilight 6:44 AM EST 6:19 PM EST
Nautical Twilight 6:14 AM EST 6:49 PM EST
Astronomical Twilight 5:45 AM EST 7:18 PM EST
Moon 4:45 AM EST (2/7) 3:18 PM EST (2/7)
Length of Visible Light 11h 34m
Length of Day
10h 42m
Waning Crescent, 9% of the Moon is Illuminated
Feb 7
Waning Crescent
Feb 10
New
Feb 17
First Quarter
Feb 25
Full
Mar 4
Last Quarter

Hourly Weather History & Observations

Time (EST) Temp. Windchill Dew Point Humidity Pressure Visibility Wind Dir Wind Speed Gust Speed Precip Events Conditions
12:52 AM 45.0 °F 40.6 °F 28.9 °F 53% 30.23 in 10.0 mi East 8.1 mph - N/A   Clear
1:52 AM 44.1 °F 40.1 °F 32.0 °F 63% 30.24 in 10.0 mi East 6.9 mph - N/A   Clear
2:52 AM 42.1 °F 37.7 °F 35.1 °F 76% 30.24 in 10.0 mi East 6.9 mph - N/A   Clear
3:52 AM 41.0 °F 36.4 °F 36.0 °F 82% 30.24 in 10.0 mi East 6.9 mph - N/A   Clear
4:52 AM 39.9 °F 35.8 °F 37.0 °F 89% 30.24 in 8.0 mi ENE 5.8 mph - N/A   Clear
5:52 AM 41.0 °F 36.4 °F 37.9 °F 89% 30.26 in 7.0 mi ENE 6.9 mph - N/A   Clear
6:52 AM 41.0 °F 35.8 °F 37.9 °F 89% 30.26 in 7.0 mi ENE 8.1 mph - N/A   Clear
7:52 AM 42.1 °F 36.1 °F 39.0 °F 89% 30.26 in 5.0 mi NE 10.4 mph - N/A   Clear
8:52 AM 44.1 °F 39.0 °F 39.0 °F 82% 30.28 in 6.0 mi ENE 9.2 mph - N/A   Haze
9:52 AM 45.0 °F 38.5 °F 39.0 °F 80% 30.27 in 7.0 mi NE 13.8 mph - N/A   Clear
10:52 AM 48.0 °F - 39.9 °F 74% 30.24 in 7.0 mi ENE 15.0 mph - N/A   Clear
11:52 AM 50.0 °F - 39.9 °F 68% 30.23 in 7.0 mi ENE 11.5 mph - N/A   Clear
12:52 PM 50.0 °F - 41.0 °F 71% 30.19 in 7.0 mi ENE 13.8 mph 18.4 mph N/A   Partly Cloudy
1:52 PM 52.0 °F - 41.0 °F 66% 30.16 in 7.0 mi NE 11.5 mph - N/A   Mostly Cloudy
2:52 PM 52.0 °F - 42.1 °F 69% 30.14 in 8.0 mi ENE 11.5 mph - N/A   Mostly Cloudy
3:52 PM 50.0 °F - 43.0 °F 77% 30.13 in 6.0 mi NE 15.0 mph - 0.00 in Rain Light Rain
4:52 PM 48.0 °F - 44.1 °F 86% 30.11 in 4.0 mi NE 10.4 mph - 0.03 in Rain Light Rain
5:52 PM 46.9 °F - 44.1 °F 90% 30.08 in 5.0 mi NE 13.8 mph - 0.08 in Rain Light Rain
6:52 PM 46.0 °F 39.6 °F 44.1 °F 93% 30.07 in 5.0 mi NE 15.0 mph - 0.04 in Rain Light Rain
7:52 PM 46.9 °F - 45.0 °F 93% 30.04 in 4.0 mi ENE 16.1 mph 21.9 mph 0.03 in Rain Light Rain
8:27 PM 46.4 °F 40.4 °F 44.6 °F 93% 30.02 in 6.0 mi ENE 13.8 mph 24.2 mph 0.00 in   Overcast
8:52 PM 48.0 °F - 46.0 °F 93% 30.00 in 6.0 mi ENE 19.6 mph 26.5 mph 0.01 in Rain Light Rain
9:19 PM 46.4 °F 38.7 °F 46.4 °F 100% 29.98 in 5.0 mi ENE 20.7 mph 31.1 mph 0.01 in Rain Light Rain
9:49 PM 48.2 °F - 46.4 °F 93% 29.95 in 8.0 mi ENE 19.6 mph 29.9 mph 0.01 in   Overcast
9:52 PM 48.0 °F - 46.0 °F 93% 29.95 in 9.0 mi ENE 18.4 mph 29.9 mph 0.01 in   Overcast
10:36 PM 48.2 °F - 46.4 °F 93% 29.93 in 5.0 mi ENE 20.7 mph 32.2 mph 0.03 in Rain Light Rain
10:52 PM 48.0 °F - 46.0 °F 93% 29.90 in 5.0 mi ENE 19.6 mph 29.9 mph 0.06 in Rain Rain
11:12 PM 48.2 °F - 46.4 °F 93% 29.89 in 4.0 mi ENE 19.6 mph 26.5 mph 0.05 in Rain Rain
11:52 PM 48.0 °F - 46.0 °F 93% 29.85 in 4.0 mi ENE 19.6 mph 25.3 mph 0.24 in Rain Rain